TimeEST,TemperatureF,Dew PointF,Humidity,Sea Level PressureIn,VisibilityMPH,Wind Direction,Wind SpeedMPH,Gust SpeedMPH,PrecipitationIn,Events,Conditions,WindDirDegrees,DateUTC
12:00 AM,19.4,6.8,58,30.42,10.0,Calm,Calm,-,N/A,,Clear,0,2014-03-01 05:00:00
12:20 AM,17.6,10.4,73,30.42,10.0,Calm,Calm,-,N/A,,Clear,0,2014-03-01 05:20:00
12:40 AM,17.6,10.4,73,30.41,10.0,Calm,Calm,-,N/A,,Clear,0,2014-03-01 05:40:00
1:00 AM,17.6,10.4,73,30.41,10.0,Calm,Calm,-,N/A,,Clear,0,2014-03-01 06:00:00
1:20 AM,17.6,10.4,73,30.41,10.0,Calm,Calm,-,N/A,,Clear,0,2014-03-01 06:20:00
1:40 AM,17.6,10.4,73,30.40,10.0,Calm,Calm,-,N/A,,Clear,0,2014-03-01 06:40:00
2:00 AM,17.6,10.4,73,30.40,10.0,Calm,Calm,-,N/A,,Clear,0,2014-03-01 07:00:00
2:20 AM,15.8,10.4,79,30.40,10.0,Calm,Calm,-,N/A,,Clear,0,2014-03-01 07:20:00
2:40 AM,15.8,12.2,86,30.39,10.0,Calm,Calm,-,N/A,,Clear,0,2014-03-01 07:40:00
3:00 AM,15.8,10.4,79,30.39,10.0,Calm,Calm,-,N/A,,Clear,0,2014-03-01 08:00:00
3:20 AM,15.8,10.4,79,30.39,10.0,Calm,Calm,-,N/A,,Clear,0,2014-03-01 08:20:00
3:40 AM,14.0,12.2,93,30.39,10.0,Calm,Calm,-,N/A,,Clear,0,2014-03-01 08:40:00
4:00 AM,15.8,10.4,79,30.38,10.0,Calm,Calm,-,N/A,,Clear,0,2014-03-01 09:00:00
4:20 AM,14.0,12.2,93,30.38,10.0,Calm,Calm,-,N/A,,Clear,0,2014-03-01 09:20:00
4:40 AM,14.0,12.2,93,30.38,10.0,Calm,Calm,-,N/A,,Clear,0,2014-03-01 09:40:00
5:00 AM,15.8,10.4,79,30.38,10.0,Calm,Calm,-,N/A,,Clear,0,2014-03-01 10:00:00
5:20 AM,14.0,10.4,86,30.37,10.0,Calm,Calm,-,N/A,,Clear,0,2014-03-01 10:20:00
5:35 AM,14.0,10.4,86,30.38,10.0,Calm,Calm,-,N/A,,Clear,0,2014-03-01 10:35:00
6:45 AM,14.0,10.4,86,30.39,10.0,Calm,Calm,-,N/A,,Clear,0,2014-03-01 11:45:00
7:45 AM,17.6,12.2,79,30.40,10.0,Calm,Calm,-,N/A,,Clear,0,2014-03-01 12:45:00
8:45 AM,24.8,15.8,69,30.40,10.0,Calm,Calm,-,N/A,,Clear,0,2014-03-01 13:45:00
9:45 AM,30.2,17.6,60,30.38,10.0,South,8.1,-,N/A,,Clear,190,2014-03-01 14:45:00
10:45 AM,33.8,19.4,56,30.37,10.0,South,11.5,18.4,N/A,,Clear,190,2014-03-01 15:45:00
11:45 AM,35.6,17.6,48,30.35,10.0,SW,10.4,-,N/A,,Overcast,230,2014-03-01 16:45:00
12:52 PM,39.2,19.4,45,30.29,10.0,South,8.1,-,N/A,,Scattered Clouds,180,2014-03-01 17:52:00
1:50 PM,41.0,19.4,42,30.26,10.0,SW,9.2,-,N/A,,Clear,220,2014-03-01 18:50:00
2:50 PM,41.0,19.4,42,30.24,10.0,Variable,3.5,-,N/A,,Overcast,0,2014-03-01 19:50:00
3:50 PM,41.0,19.4,42,30.24,10.0,SW,4.6,-,N/A,,Overcast,230,2014-03-01 20:50:00
4:52 PM,41.0,21.2,45,30.22,10.0,Calm,Calm,-,N/A,,Mostly Cloudy,0,2014-03-01 21:52:00
5:50 PM,39.2,21.2,49,30.21,10.0,Variable,4.6,-,N/A,,Clear,0,2014-03-01 22:50:00
6:50 PM,35.6,21.2,56,30.24,10.0,Calm,Calm,-,N/A,,Overcast,0,2014-03-01 23:50:00
7:45 PM,35.6,26.6,70,30.24,10.0,ESE,3.5,-,N/A,,Overcast,120,2014-03-02 00:45:00
8:05 PM,35.6,26.6,70,30.23,10.0,Calm,Calm,-,N/A,,Overcast,0,2014-03-02 01:05:00
8:25 PM,35.6,24.8,65,30.22,10.0,Calm,Calm,-,N/A,,Overcast,0,2014-03-02 01:25:00
8:45 PM,35.6,26.6,70,30.21,10.0,Calm,Calm,-,N/A,,Overcast,0,2014-03-02 01:45:00
9:05 PM,35.6,24.8,65,30.21,10.0,WSW,3.5,-,N/A,,Overcast,250,2014-03-02 02:05:00
9:25 PM,33.8,23.0,65,30.21,10.0,Calm,Calm,-,N/A,,Mostly Cloudy,0,2014-03-02 02:25:00
9:45 PM,33.8,26.6,75,30.21,10.0,Calm,Calm,-,N/A,,Mostly Cloudy,0,2014-03-02 02:45:00
10:05 PM,33.8,23.0,65,30.22,10.0,Calm,Calm,-,N/A,,Mostly Cloudy,0,2014-03-02 03:05:00
10:25 PM,32.0,26.6,80,30.22,10.0,Calm,Calm,-,N/A,,Mostly Cloudy,0,2014-03-02 03:25:00
10:45 PM,32.0,26.6,80,30.22,10.0,Calm,Calm,-,N/A,,Overcast,0,2014-03-02 03:45:00
11:05 PM,32.0,28.4,87,30.21,10.0,ESE,3.5,-,N/A,,Overcast,120,2014-03-02 04:05:00
11:25 PM,33.8,26.6,75,30.20,10.0,SE,3.5,-,N/A,,Overcast,130,2014-03-02 04:25:00
11:45 PM,33.8,26.6,75,30.20,10.0,SE,4.6,-,N/A,,Overcast,140,2014-03-02 04:45:00